TimeEDT,TemperatureF,Dew PointF,Humidity,Sea Level PressureIn,VisibilityMPH,Wind Direction,Wind SpeedMPH,Gust SpeedMPH,PrecipitationIn,Events,Conditions,WindDirDegrees,DateUTC
12:15 AM,53.6,46.4,77,29.91,10.0,West,15.0,-,N/A,,Scattered Clouds,260,2011-10-27 04:15:00
12:35 AM,53.6,46.4,77,29.91,10.0,West,17.3,21.9,N/A,,Scattered Clouds,260,2011-10-27 04:35:00
1:15 AM,53.6,46.4,77,29.90,10.0,West,17.3,23.0,N/A,,Clear,260,2011-10-27 05:15:00
1:35 AM,53.6,46.4,77,29.90,10.0,West,18.4,23.0,N/A,,Clear,260,2011-10-27 05:35:00
2:15 AM,53.6,46.4,77,29.89,10.0,West,17.3,24.2,N/A,,Overcast,260,2011-10-27 06:15:00
2:35 AM,53.6,46.4,77,29.89,10.0,West,19.6,26.5,N/A,,Scattered Clouds,270,2011-10-27 06:35:00
2:55 AM,53.6,46.4,77,29.88,10.0,West,19.6,28.8,N/A,,Scattered Clouds,260,2011-10-27 06:55:00
3:15 AM,53.6,46.4,77,29.87,10.0,West,21.9,27.6,N/A,,Mostly Cloudy,270,2011-10-27 07:15:00
3:35 AM,53.6,46.4,77,29.87,10.0,West,19.6,26.5,N/A,,Overcast,280,2011-10-27 07:35:00
4:15 AM,53.6,46.4,77,29.86,10.0,West,23.0,32.2,N/A,,Overcast,270,2011-10-27 08:15:00
4:35 AM,53.6,46.4,77,29.86,10.0,West,20.7,28.8,N/A,,Overcast,270,2011-10-27 08:35:00
4:55 AM,53.6,46.4,77,29.85,10.0,West,18.4,33.4,N/A,,Overcast,270,2011-10-27 08:55:00
5:15 AM,53.6,46.4,77,29.85,10.0,West,20.7,29.9,N/A,,Overcast,270,2011-10-27 09:15:00
5:35 AM,53.6,46.4,77,29.86,10.0,West,21.9,-,N/A,,Overcast,270,2011-10-27 09:35:00
5:55 AM,53.6,46.4,77,29.86,10.0,West,18.4,26.5,N/A,,Overcast,270,2011-10-27 09:55:00
6:35 AM,51.8,48.2,88,29.85,10.0,West,21.9,27.6,N/A,,Overcast,270,2011-10-27 10:35:00
6:55 AM,53.6,46.4,77,29.84,10.0,West,19.6,29.9,N/A,,Mostly Cloudy,270,2011-10-27 10:55:00
7:15 AM,53.6,46.4,77,29.84,10.0,West,19.6,25.3,N/A,,Overcast,270,2011-10-27 11:15:00
7:35 AM,53.6,46.4,77,29.84,10.0,West,18.4,25.3,N/A,,Overcast,270,2011-10-27 11:35:00
7:55 AM,53.6,46.4,77,29.84,10.0,West,20.7,26.5,N/A,,Overcast,280,2011-10-27 11:55:00
8:15 AM,53.6,46.4,77,29.84,10.0,West,19.6,24.2,N/A,,Overcast,270,2011-10-27 12:15:00
8:35 AM,53.6,46.4,77,29.84,10.0,West,19.6,28.8,N/A,,Overcast,280,2011-10-27 12:35:00
8:55 AM,53.6,46.4,77,29.84,10.0,West,23.0,28.8,N/A,Rain,Light Rain,270,2011-10-27 12:55:00
9:15 AM,53.6,46.4,77,29.84,10.0,West,24.2,32.2,N/A,,Overcast,280,2011-10-27 13:15:00
9:35 AM,51.8,46.4,82,29.84,10.0,West,24.2,34.5,N/A,,Overcast,270,2011-10-27 13:35:00
9:55 AM,51.8,48.2,88,29.84,7.0,West,23.0,35.7,N/A,Rain,Rain,270,2011-10-27 13:55:00
10:15 AM,51.8,48.2,88,29.83,10.0,West,27.6,36.8,N/A,,Light Drizzle,270,2011-10-27 14:15:00
10:35 AM,51.8,50.0,94,29.83,10.0,West,28.8,34.5,N/A,,Overcast,260,2011-10-27 14:35:00
10:55 AM,51.8,50.0,94,29.83,10.0,West,26.5,35.7,N/A,,Overcast,270,2011-10-27 14:55:00
11:15 AM,51.8,50.0,94,29.82,10.0,West,24.2,31.1,N/A,,Light Drizzle,280,2011-10-27 15:15:00
11:35 AM,51.8,51.8,100,29.81,4.0,West,27.6,34.5,N/A,Rain,Light Rain,270,2011-10-27 15:35:00
11:55 AM,51.8,51.8,100,29.81,10.0,West,26.5,36.8,N/A,,Overcast,270,2011-10-27 15:55:00
12:15 PM,51.8,51.8,100,29.82,10.0,West,24.2,31.1,N/A,,Overcast,260,2011-10-27 16:15:00
12:35 PM,51.8,51.8,100,29.80,10.0,West,19.6,36.8,N/A,,Overcast,270,2011-10-27 16:35:00
12:55 PM,51.8,51.8,100,29.80,10.0,West,23.0,33.4,N/A,,Overcast,270,2011-10-27 16:55:00
1:15 PM,51.8,51.8,100,29.79,10.0,West,21.9,32.2,N/A,,Overcast,270,2011-10-27 17:15:00
1:35 PM,53.6,51.8,94,29.79,10.0,West,21.9,34.5,N/A,,Overcast,270,2011-10-27 17:35:00
1:55 PM,53.6,51.8,94,29.78,10.0,West,21.9,34.5,N/A,,Overcast,260,2011-10-27 17:55:00
2:15 PM,53.6,51.8,94,29.77,10.0,West,21.9,33.4,N/A,,Overcast,270,2011-10-27 18:15:00
2:35 PM,53.6,51.8,94,29.77,10.0,West,19.6,32.2,N/A,,Overcast,260,2011-10-27 18:35:00
2:55 PM,53.6,51.8,94,29.78,10.0,West,21.9,32.2,N/A,,Overcast,260,2011-10-27 18:55:00
3:15 PM,51.8,51.8,100,29.79,10.0,West,19.6,33.4,N/A,,Overcast,270,2011-10-27 19:15:00
3:35 PM,51.8,51.8,100,29.80,4.0,West,17.3,34.5,N/A,,Overcast,260,2011-10-27 19:35:00
3:55 PM,51.8,51.8,100,29.79,7.0,West,17.3,35.7,N/A,,Overcast,260,2011-10-27 19:55:00
4:15 PM,51.8,51.8,100,29.79,10.0,West,25.3,32.2,N/A,,Overcast,260,2011-10-27 20:15:00
4:35 PM,51.8,51.8,100,29.80,5.0,West,21.9,29.9,N/A,,Overcast,270,2011-10-27 20:35:00
4:55 PM,50.0,50.0,100,29.81,7.0,West,20.7,31.1,N/A,Rain,Light Rain,270,2011-10-27 20:55:00
5:15 PM,50.0,50.0,100,29.81,0.2,West,18.4,27.6,N/A,,Drizzle,280,2011-10-27 21:15:00
5:35 PM,48.2,48.2,100,29.83,10.0,WNW,19.6,26.5,N/A,,Overcast,290,2011-10-27 21:35:00
5:55 PM,48.2,46.4,93,29.84,10.0,WNW,13.8,25.3,N/A,,Overcast,290,2011-10-27 21:55:00
6:15 PM,46.4,44.6,93,29.85,10.0,WNW,15.0,29.9,N/A,,Light Drizzle,300,2011-10-27 22:15:00
6:35 PM,46.4,42.8,87,29.86,10.0,WNW,20.7,29.9,N/A,,Overcast,290,2011-10-27 22:35:00
6:55 PM,44.6,42.8,93,29.86,10.0,WNW,24.2,36.8,N/A,,Overcast,290,2011-10-27 22:55:00
7:15 PM,44.6,42.8,93,29.88,10.0,West,19.6,32.2,N/A,,Overcast,280,2011-10-27 23:15:00
7:35 PM,44.6,42.8,93,29.90,10.0,WNW,13.8,25.3,N/A,,Overcast,290,2011-10-27 23:35:00
7:55 PM,42.8,42.8,100,29.91,10.0,WNW,16.1,25.3,N/A,,Overcast,290,2011-10-27 23:55:00
8:15 PM,42.8,41.0,93,29.92,10.0,NW,17.3,24.2,N/A,,Mostly Cloudy,320,2011-10-28 00:15:00
8:35 PM,42.8,39.2,87,29.94,10.0,WNW,15.0,25.3,N/A,,Overcast,300,2011-10-28 00:35:00
9:15 PM,39.2,35.6,87,29.95,10.0,WNW,13.8,26.5,N/A,,Overcast,300,2011-10-28 01:15:00
9:35 PM,39.2,37.4,93,29.97,10.0,WNW,16.1,28.8,N/A,,Light Drizzle,300,2011-10-28 01:35:00
9:55 PM,37.4,37.4,100,29.97,10.0,NW,15.0,27.6,N/A,Rain,Light Rain,310,2011-10-28 01:55:00
10:15 PM,37.4,37.4,100,29.98,10.0,WNW,16.1,23.0,N/A,,Overcast,300,2011-10-28 02:15:00
10:35 PM,37.4,37.4,100,29.99,10.0,NW,12.7,19.6,N/A,,Overcast,320,2011-10-28 02:35:00
10:55 PM,37.4,37.4,100,29.99,10.0,WNW,15.0,25.3,N/A,,Overcast,290,2011-10-28 02:55:00
11:15 PM,37.4,35.6,93,29.99,10.0,NW,9.2,18.4,N/A,,Mostly Cloudy,310,2011-10-28 03:15:00
11:35 PM,37.4,35.6,93,30.00,10.0,NW,5.8,16.1,N/A,,Overcast,310,2011-10-28 03:35:00
11:55 PM,35.6,35.6,100,30.01,10.0,NW,9.2,-,N/A,,Overcast,320,2011-10-28 03:55:00